Regional Weather Roundup
Issued by NWS

Home | Current Version | Previous Version | Text Only | Print | Product List | Glossary On
Versions: 1 2 3 4 5 6 7 8 9 10 11 12 13 14 15 16 17 18 19 20 21 22 23 24 25 26
000
ASUS42 KTBW 170110
RWRFL
FLORIDA REGIONAL WEATHER ROUNDUP
NATIONAL WEATHER SERVICE TAMPA BAY RUSKIN FL
900 PM EDT WED APR 16 2014

NOTE: "FAIR" INDICATES FEW OR NO CLOUDS BELOW 12,000 FEET WITH NO
SIGNIFICANT WEATHER AND/OR OBSTRUCTIONS TO VISIBILITY.


FLZ001>010-012>015-112-114-115-170200-
PANHANDLE FLORIDA

CITY           SKY/WX    TMP DP  RH WIND       PRES   REMARKS
PENSACOLA      CLEAR     57  45  64 CALM      30.15R
PENSACOLA NAS  PTCLDY    52  48  86 CALM      30.15R
MILTON NAS     PTCLDY    55  45  68 SW3       30.17R
CRESTVIEW      PTCLDY    54  45  71 E3        30.18R
DUKE FIELD     PTCLDY    58  42  55 E5        30.16R
VALPARAISO     PTCLDY    64  49  59 NW1       30.16R
MARY ESTHER    CLEAR     61  43  52 N3        30.15R
TRI COUNTY     FAIR      55  46  71 N3        30.19R
PANAMA CITY    FAIR      62  47  57 CALM      30.15R
TYNDALL AFB    CLEAR     58  53  84 N5        30.16R
APALACHICOLA   CLEAR     65  49  56 E6        30.15R

STATION/POSITION SKY/WX   TEMP    WIND        PRES    WAVE   SWELL
                          AIR SEA DIR/SP/G            HT/PER HT/PER
                          (F)     (DEG/KT/KT) (MB)    (FT/S) (FT/S)
30.1N   87.6W              60 66  140/  6/  8 1021.1R   2/ 5   2/ 5
29.2N   88.2W              59 69   80/ 12/ 17 1020.6F
28.8N   86.0W              64 69   80/ 16/ 21 1020.5R   5/ 6
PANAMA CITY BEAC           62 68  260/  5/  8 1021.1R
CAPE SAN BLAS    NOT AVBL
TOWER C                    64      60/ 24/ 26 1020.2R
28.5N   84.5W              67 69   50/ 16/ 17 1019.0R   4/ 5

$$
FLZ011-016>038-118-127-128-134-139-239-170200-
NORTH FLORIDA

CITY           SKY/WX    TMP DP  RH WIND       PRES   REMARKS
MARIANNA       PTCLDY    58  42  55 E5        30.18R
TALLAHASSEE    PTCLDY    61  44  53 E10       30.19R
PERRY          PTCLDY    59  48  67 NE6       30.19R
CROSS CITY       N/A     59  50  72 E8G17     30.17R
GAINESVILLE    CLOUDY    58  50  75 NE13      30.20R
MAYPORT NAS    CLOUDY    60  50  69 NE20G25   30.24R
JACKSONVILLE   MOCLDY    55  48  77 NE10      30.25R
JAX NAS        MOCLDY    60  48  64 NE20      30.24R
JAX CRAIG      CLOUDY    60  49  66 NE13      30.24R
JAX CECIL      MOCLDY    55  46  71 NE13      30.24R
FERNANDINA BEA MOCLDY    59  48  67 NE17      30.24S
ST AUGUSTINE   CLOUDY    62  55  77 NE18G24   30.22R

STATION/POSITION SKY/WX   TEMP    WIND        PRES    WAVE   SWELL
                          AIR SEA DIR/SP/G            HT/PER HT/PER
                          (F)     (DEG/KT/KT) (MB)    (FT/S) (FT/S)
SHELL POINT                65      90/  9/ 17 1019.9R
KEATON BEACH               60      60/  9/ 12 1022.0R
CEDAR KEY                  64      70/ 23/ 26 1021.0R
FERNANDINA                 58 66   30/  9/ 17 1023.8R
30.7N   81.3W                 65                N/A     8/ 7   2/11
MAYPORT                    59 63   40/ 18/ 20   N/A
31.4N   80.9W              57 64   50/ 21/ 25 1024.4R   6/ 7
ST AUGUSTINE               63      40/ 21/ 25 1023.1R

$$
FLZ040-043>046-052-053-057-058-063-144-170200-
INTERIOR CENTRAL FLORIDA

CITY           SKY/WX    TMP DP  RH WIND       PRES   REMARKS
OCALA          CLEAR     59  48  67 NE7       30.18S
THE VILLAGES     N/A     61  55  82 NE9G20    30.17R
LEESBURG       CLOUDY    63  56  78 NE14      30.17R
SANFORD        CLOUDY    65  59  81 N10       30.15R
ORLANDO EXEC   PTCLDY    66  57  72 N9        30.15R
ORLANDO INTL   PTCLDY    65  57  75 N13       30.15R
KISSIMMEE      PTCLDY    66  61  82 NE12      30.14R
WINTER HAVEN   CLOUDY    67  57  70 NE16      30.14R
LAKELAND       MOCLDY    68  57  68 NE20      30.13R
BARTOW         FAIR      68  55  64 NE14      30.13R
OKEECHOBEE     CLOUDY    68  61  77 NE8       30.11R

$$
FLZ041-047-054-059-064-141-147-170200-
EAST CENTRAL FLORIDA

CITY           SKY/WX    TMP DP  RH WIND       PRES   REMARKS
DAYTONA BEACH  MOCLDY    68  56  65 NE15      30.17R
DELAND         PTCLDY    63  57  82 N8        30.17R
JFK SPACE CTR  PTCLDY    68  57  67 E13G23    30.14R
TITUSVILLE     MOCLDY    70  59  68 E22       30.14R
CAPE CANAVERAL CLEAR     69  57  65 E13G18    30.13R
PATRICK AFB    PTCLDY    71  60  68 NE18      30.12R
MELBOURNE      MOCLDY    71  60  68 NE17      30.12R
VERO BEACH     CLOUDY    72  65  78 NE14      30.11R
FT PIERCE      CLOUDY    73  63  70 NE7       30.10R
STUART         MOCLDY    72  66  83 NE13G20   30.10R

STATION/POSITION SKY/WX   TEMP    WIND        PRES    WAVE   SWELL
                          AIR SEA DIR/SP/G            HT/PER HT/PER
                          (F)     (DEG/KT/KT) (MB)    (FT/S) (FT/S)
28.5N   80.2W              71 74   50/ 19/ 23 1019.3R   6/ 7   3/11
28.9N   78.5W              72 76   50/ 19/ 21 1019.6R   7/ 9   3/ 9
TRIDENT PIER               69 74   40/ 12/ 16 1019.6S
28.4N   80.5W                 73                N/A     4/ 8
27.6N   80.2W                 73                N/A     5/ 7

$$
FLZ050-056-061-142-242-148-248-149-249-151-251-155-255-
160-260-170200-
WEST CENTRAL FLORIDA

CITY           SKY/WX    TMP DP  RH WIND       PRES   REMARKS
CRYSTAL RIVER  FAIR      61  52  72 NE10      30.15R
INVERNESS      FAIR      61  52  72 NE8G16    30.16R
BROOKSVILLE    CLEAR     63  54  72 NE17G26   30.14R
ZEPHYRHILLS    FAIR      63  55  77 NE10      30.14R
CLEARWATER     MOCLDY    70  58  65 NE21G28   30.09R
TAMPA INTL     PTCLDY    69  56  62 NE7G22    30.11R
TAMPA EXEC     MOCLDY    70  55  60 NE10G22   30.12R
PLANT CITY     PTCLDY    70  57  64 NE14G20   30.14R
MACDILL AFB    MOCLDY    70  61  72 E21       30.09R
PETER O KNIGHT MOCLDY    72  59  64 NE20      30.10R
ST PETERSBURG  CLOUDY    74  63  68 E23       30.08R
SARASOTA       PTCLDY    73  60  63 E17G24    30.06R
VENICE         CLOUDY    73  63  68 E13G21    30.07R

STATION/POSITION SKY/WX   TEMP    WIND        PRES    WAVE   SWELL
                          AIR SEA DIR/SP/G            HT/PER HT/PER
                          (F)     (DEG/KT/KT) (MB)    (FT/S) (FT/S)
CEDAR KEY                  64      70/ 23/ 26 1021.0R
28.5N   84.5W              67 69   50/ 16/ 17 1019.0R   4/ 5
27.3N   84.3W                 72                N/A     5/ 7
CLEARWATER BEACH           70 73   50/ 13/ 19 1018.2R
MIDDLE TAMPA BAY           73      90/ 19/ 23 1018.3R
VENICE                     75 75   60/  5/  6 1016.9R

$$
FLZ066-069-070-075>078-162-262-165-265-170200-
SOUTHWEST FLORIDA AND KEYS

CITY           SKY/WX    TMP DP  RH WIND       PRES   REMARKS
PUNTA GORDA    CLOUDY    72  63  73 E15       30.09R
FT MYERS       CLOUDY    74  64  71 E12       30.05R
SOUTHWEST INTL CLOUDY    74  64  71 E15       30.06R
NAPLES         CLOUDY    75  69  81 NE12      30.04R
MARATHON       MOCLDY    79  71  76 E15       30.02R
KEY WEST NAS   MOCLDY    78  72  81 NE7       30.03R
KEY WEST INTL  CLOUDY    78  72  81 NE6       30.03R

STATION/POSITION SKY/WX   TEMP    WIND        PRES    WAVE   SWELL
                          AIR SEA DIR/SP/G            HT/PER HT/PER
                          (F)     (DEG/KT/KT) (MB)    (FT/S) (FT/S)
VENICE                     75 75   60/  5/  6 1016.9R
NAPLES                     75 77   60/  8/ 13 1017.6S
26.0N   85.6W              67 80   30/ 10/ 14 1018.1R   4/ 8   3/ 8
DRY TORTUGAS     NOT AVBL
NW FL BAY                  80     110/ 18/ 22 1015.8R
SOMBRERO KEY               78      80/ 18/ 19 1016.2R
LONG KEY                   78 81   80/ 17/ 19 1017.0R
MOLASSES REEF              77 77   70/ 16/ 18 1016.3R

$$
FLZ067-068-071>074-168-172>174-170200-
SOUTHEAST FLORIDA

CITY           SKY/WX    TMP DP  RH WIND       PRES   REMARKS
W PALM BEACH   LGT RAIN  74  69  85 NE10      30.06R
FT LAUDER-EXEC CLOUDY    75  70  84 NE6       30.05R
FT LAUDERDALE  CLOUDY    77  69  76 E10       30.04R
POMPANO BEACH  RAIN      75  69  81 NE10      30.06R
PEMBROKE PINES CLOUDY    77  68  73 NE8       30.06S
OPA LOCKA      CLOUDY    77  66  68 E10       30.05R
MIAMI          CLOUDY    77  68  73 E13       30.05R
WEST KENDALL   CLOUDY    76  68  76 NE14      30.05R
HOMESTEAD      CLOUDY    76  69  77 NE13G18   30.03R

STATION/POSITION SKY/WX   TEMP    WIND        PRES    WAVE   SWELL
                          AIR SEA DIR/SP/G            HT/PER HT/PER
                          (F)     (DEG/KT/KT) (MB)    (FT/S) (FT/S)
PORT EVERGLADES            77      60/ 11/ 16 1017.4
VIRGINIA KEY               77 80   60/ 12/ 16 1017.2R
LAKE WORTH                 75 76   40/ 20/ 23 1017.5R
FOWEY ROCKS                76 78   50/ 17/ 17 1016.8R
SETTLEMENT POINT           75      60/ 20/ 22 1018.6R

$$




USA.gov is the U.S. government's official web portal to all federal, state and local government web resources and services.